[[{"header":{"parameterUnit":"m.s-1","parameterCategory":1,"la1":30.2991,"la2":30.254,"lo1":-89.0895,"lo2":-89.0444,"dy":0.0017,"dx":0.0017,"nx":28,"ny":28,"refTime":"2025-08-22T21:00:00:Z","depth":0,"parameterNumber":2,"parameterNumberName":"U-component_of_WINDS"},"data":[0,0,0,0,0,0,0,0,0,0,0,0,0,0,0,0,0,0,0,0,0,0,0,0,0,0,0,0,0,0,0,0,0,0,0,0,0,0,0,0,0,0,0,0,0,0,0,0,0,0,0,0,0,0,0,0,0,0,1.0827,1.0828,0,1.0866,1.0867,1.0867,1.0872,1.0871,1.0871,1.0871,1.0909,1.0911,1.0912,0,0,0,0,0,0,0,0,0,0,0,0,0,1.0756,1.0757,1.0827,1.0828,1.0828,1.0866,1.0867,1.0867,1.0872,1.0871,1.0871,1.0871,1.0909,1.091,1.0912,0,0,0,0,0,0,0,0,0,0,0,0,0,1.079,1.0758,1.0827,1.0835,1.0836,1.0866,1.0867,1.0867,1.0872,1.0871,1.0871,1.087,1.0908,1.091,1.0912,1.0936,0,0,1.0919,1.092,0,0,0,0,0,0,0,0,1.0788,1.0793,1.0833,1.0835,1.0836,1.0864,1.0856,1.089,1.0872,1.0858,1.0871,1.087,1.0894,1.0898,1.0906,1.0938,1.094,1.0919,1.092,1.0921,1.0922,0,0,0,0,0,0,0,1.0786,1.0791,1.0843,1.0834,1.0836,1.0836,1.0841,1.0862,1.0879,1.086,1.086,1.0865,1.0895,1.0904,1.0907,1.094,1.0919,1.0921,1.0922,1.0923,1.0994,1.0995,0,0,0,0,0,0,1.0782,1.0789,1.0841,1.0844,1.081,1.0838,1.0843,1.0855,1.0879,1.0882,1.0865,1.0865,1.0901,1.0905,1.0908,1.0938,1.0921,1.0923,1.0924,1.0993,1.0994,1.0995,0,0,0,0,0,0,1.078,1.0787,1.084,1.0817,1.0823,1.084,1.0854,1.0856,1.0865,1.0883,1.0886,1.0871,1.0901,1.0906,1.0929,1.0939,1.0924,1.0926,1.0993,1.0994,1.0994,1.0997,0,0,0,0,0,0,1.0778,1.0786,1.0796,1.0817,1.0825,1.086,1.0855,1.0858,1.0869,1.0869,1.089,1.0893,1.0901,1.0926,1.0932,1.0942,1.0927,1.0992,1.0993,1.0994,1.0996,1.0998,1.0999,0,0,0,0,0,1.0776,1.0794,1.0796,1.0802,1.0837,1.0861,1.0865,1.0875,1.087,1.0879,1.0891,1.0892,1.0938,1.0929,1.0935,1.0946,1.0991,1.0993,1.0994,1.0995,1.0997,1.0999,0,0,0,0,0,0,1.0773,1.0797,1.0799,1.0825,1.0841,1.0862,1.0874,1.0877,1.0894,1.0893,1.0903,1.0908,1.0931,1.0941,1.0931,1.097,1.0964,1.0967,1.0963,1.0965,1.0967,1.0963,1.0929,0,0,0,0,0,1.0776,1.0794,1.0814,1.0835,1.0843,1.0857,1.0868,1.0874,1.089,1.0897,1.091,1.0926,1.0943,1.0955,1.0972,1.0998,1.1002,1.1008,1.101,1.1011,1.1013,1.1027,1.103,1.1,1.1,1.1,0,0,1.0781,1.0797,1.0807,1.0835,1.0848,1.0866,1.0863,1.0882,1.0895,1.09,1.0923,1.0933,1.0951,1.0976,1.0988,1.0985,1.1023,1.1013,1.1014,1.1015,1.1029,1.1032,1.1034,1.1001,1.1,1.1,0,0,1.08,1.0814,1.0833,1.0846,1.0866,1.0875,1.088,1.09,1.0907,1.0931,1.0935,1.0951,1.0981,1.0994,1.1004,1.1029,1.103,1.1034,1.1042,1.1056,1.1058,1.106,1.1068,1.1071,1.1036,1.1036,1.1036,0,1.0804,1.0832,1.0842,1.0861,1.0873,1.0879,1.0898,1.091,1.0934,1.0942,1.0939,1.0977,1.099,1.1018,1.1024,1.1032,1.1037,1.1031,1.1057,1.1059,1.1062,1.1069,1.1072,1.1036,1.1036,1.1036,1.1036,0,1.0835,1.0854,1.0867,1.0891,1.0904,1.0923,1.0936,1.0948,1.0953,1.0963,1.0987,1.1003,1.1023,1.103,1.1035,1.1059,1.1056,1.1055,1.1049,1.1065,1.1072,1.1075,1.1037,1.1037,1.1037,1.1037,0,0,1.0853,1.0882,1.0887,1.0898,1.092,1.0935,1.0954,1.0975,1.0985,1.1002,1.1017,1.1044,1.1043,1.1055,1.1061,1.1073,1.109,1.107,1.1071,1.1073,1.1117,1.1117,1.112,1.1092,1.1093,1.1093,1.1115,0,1.0873,1.0908,1.0918,1.0947,1.0964,1.097,1.0987,1.1002,1.1012,1.1028,1.1039,1.1057,1.1055,1.1062,1.1074,1.1086,1.1099,1.1084,1.1106,1.1107,1.1101,1.1124,1.1124,1.1144,1.1118,1.1118,1.1119,0,1.0902,1.092,1.095,1.0971,1.0978,1.0993,1.1013,1.1028,1.1046,1.1052,1.1066,1.1071,1.1091,1.1085,1.1112,1.1102,1.1111,1.1118,1.1119,1.1121,1.1113,1.1126,1.1151,1.1153,1.1124,1.1123,1.1123,0,1.0911,1.0942,1.0965,1.0974,1.0998,1.1008,1.1019,1.1036,1.1048,1.1065,1.1073,1.1092,1.1102,1.1117,1.1127,1.1122,1.1154,1.1148,1.1159,1.1159,1.1164,1.1164,1.1191,1.1172,1.1172,1.1172,1.1172,0,1.0932,1.095,1.0969,1.0982,1.1003,1.1015,1.1035,1.1046,1.1061,1.1077,1.1083,1.1098,1.1111,1.1127,1.1135,1.1156,1.1161,1.1166,1.1168,1.1165,1.1165,1.1171,1.117,1.1173,1.1173,1.1172,1.1172,0,1.0945,1.0958,1.0983,1.1004,1.101,1.1024,1.1042,1.1056,1.1066,1.1086,1.1091,1.1107,1.1126,1.1139,1.1163,1.1169,1.1192,1.1193,1.1186,1.1186,1.1196,1.1195,1.1228,1.1232,1.1211,1.1212,1.1212,0,1.0957,1.0972,1.0995,1.1006,1.1017,1.1034,1.1047,1.1059,1.1071,1.1093,1.1103,1.1123,1.114,1.1171,1.1184,1.1203,1.1205,1.1215,1.1207,1.1204,1.1204,1.1203,1.1204,1.1216,1.1216,1.1216,1.1216,0,1.0978,1.0983,1.1001,1.1021,1.1035,1.1052,1.1068,1.1076,1.1091,1.1105,1.1125,1.1138,1.1163,1.1183,1.1203,1.1214,1.1217,1.1219,1.1222,1.1219,1.1214,1.1216,1.1188,1.1218,1.1217,1.1217,1.1217,1.1217,1.099,1.1003,1.1021,1.1041,1.1054,1.1069,1.1083,1.1095,1.1112,1.1134,1.114,1.1161,1.1179,1.1206,1.1217,1.1234,1.1232,1.1237,1.1238,1.1239,1.1239,1.1212,1.1238,1.1237,1.1237,1.1237,1.1237,0,1.101,1.1022,1.104,1.1063,1.1078,1.1081,1.1099,1.1111,1.113,1.1146,1.1162,1.1186,1.1205,1.122,1.124,1.125,1.1252,1.1255,1.1254,1.1256,1.124,1.1234,1.1253,1.1253,1.1253,1.1253,1.1253,1.1253,1.1022,1.1044,1.1052,1.1081,1.1093,1.1114,1.1124,1.1138,1.1151,1.1177,1.1193,1.1203,1.1219,1.124,1.1258,1.1262,1.1268,1.127,1.1274,1.1259,1.1257,1.1255,1.1251,1.1272,1.1272,1.1289,1.1289,1.129]},{"header":{"parameterUnit":"m.s-1","parameterCategory":1,"la1":30.2991,"la2":30.254,"lo1":-89.0895,"lo2":-89.0444,"dy":0.0017,"dx":0.0017,"nx":28,"ny":28,"refTime":"2025-08-22T21:00:00:Z","depth":0,"parameterNumber":3,"parameterNumberName":"V-component_of_WINDS"},"data":[0,0,0,0,0,0,0,0,0,0,0,0,0,0,0,0,0,0,0,0,0,0,0,0,0,0,0,0,0,0,0,0,0,0,0,0,0,0,0,0,0,0,0,0,0,0,0,0,0,0,0,0,0,0,0,0,0,0,0.3478,0.3478,0,0.3477,0.3477,0.3477,0.3463,0.3463,0.3463,0.3462,0.3462,0.3462,0.3462,0,0,0,0,0,0,0,0,0,0,0,0,0,0.3468,0.3468,0.3478,0.3478,0.3478,0.3477,0.3477,0.3477,0.3464,0.3463,0.3463,0.3462,0.3462,0.3462,0.3462,0,0,0,0,0,0,0,0,0,0,0,0,0,0.347,0.3468,0.3478,0.3471,0.347,0.3477,0.3477,0.3477,0.3464,0.3463,0.3463,0.3462,0.3462,0.3462,0.3463,0.3476,0,0,0.3464,0.3464,0,0,0,0,0,0,0,0,0.347,0.347,0.3472,0.3471,0.3471,0.347,0.3473,0.3477,0.3464,0.3466,0.3462,0.3462,0.3465,0.3465,0.3466,0.3476,0.3476,0.3464,0.3464,0.3465,0.3465,0,0,0,0,0,0,0,0.347,0.347,0.3478,0.3472,0.3471,0.3468,0.3468,0.3474,0.3469,0.3466,0.3465,0.3465,0.3465,0.3466,0.3466,0.3476,0.3464,0.3464,0.3465,0.3465,0.3496,0.3497,0,0,0,0,0,0,0.347,0.347,0.3478,0.3478,0.3469,0.3469,0.3468,0.3471,0.3468,0.3468,0.3465,0.3464,0.3465,0.3466,0.3466,0.3481,0.3464,0.3465,0.3465,0.3496,0.3497,0.3497,0,0,0,0,0,0,0.347,0.3471,0.3478,0.3474,0.3474,0.3469,0.3472,0.3471,0.3472,0.3468,0.3467,0.3468,0.3465,0.3465,0.3473,0.3481,0.3465,0.3466,0.3495,0.3496,0.3497,0.3512,0,0,0,0,0,0,0.347,0.3471,0.3476,0.3474,0.3474,0.3485,0.3473,0.3471,0.3473,0.3472,0.347,0.3469,0.3464,0.3473,0.3474,0.3481,0.3466,0.3495,0.3496,0.3497,0.351,0.3513,0.3515,0,0,0,0,0,0.347,0.3481,0.3477,0.3478,0.3481,0.3486,0.3486,0.348,0.3474,0.3478,0.3476,0.3469,0.348,0.3474,0.3475,0.3482,0.3494,0.3495,0.3497,0.3509,0.3512,0.3515,0,0,0,0,0,0,0.3484,0.348,0.3476,0.3486,0.3486,0.3483,0.3489,0.3484,0.3486,0.3484,0.3477,0.3477,0.3486,0.3485,0.3478,0.3495,0.3486,0.3487,0.3495,0.3498,0.35,0.35,0.3466,0,0,0,0,0,0.3488,0.3493,0.3489,0.3499,0.3499,0.3494,0.3496,0.3492,0.3492,0.3492,0.349,0.349,0.3494,0.3496,0.3499,0.3511,0.351,0.3516,0.3519,0.352,0.3521,0.3527,0.353,0.3501,0.3501,0.3501,0,0,0.3497,0.3496,0.3499,0.3501,0.3501,0.3505,0.3494,0.35,0.3503,0.3493,0.35,0.3499,0.3499,0.3508,0.3513,0.3508,0.3529,0.3522,0.3524,0.3524,0.3529,0.3531,0.3534,0.3502,0.3502,0.3502,0,0,0.3515,0.3515,0.3522,0.3522,0.3522,0.3519,0.3521,0.3519,0.3517,0.3525,0.3517,0.3521,0.3527,0.3527,0.3528,0.3547,0.3541,0.3549,0.356,0.3565,0.3568,0.357,0.3576,0.3578,0.355,0.355,0.355,0,0.3526,0.3533,0.3527,0.3533,0.3534,0.3525,0.3533,0.3533,0.3534,0.3535,0.353,0.3537,0.3536,0.3546,0.3551,0.3552,0.3554,0.3548,0.3568,0.357,0.3571,0.3577,0.3579,0.3551,0.3551,0.3551,0.355,0,0.3546,0.3551,0.3557,0.3558,0.356,0.3566,0.3562,0.3565,0.356,0.3558,0.3565,0.3564,0.3567,0.3569,0.3565,0.3578,0.3575,0.3569,0.3559,0.3575,0.358,0.3582,0.3552,0.3552,0.3551,0.3551,0,0,0.3572,0.357,0.3572,0.3572,0.3572,0.3575,0.3582,0.3584,0.3586,0.3587,0.3592,0.3598,0.3592,0.3593,0.3589,0.3594,0.3609,0.3588,0.3588,0.3591,0.3622,0.3626,0.3629,0.3605,0.3605,0.3606,0.3622,0,0.3589,0.36,0.3595,0.3606,0.361,0.3602,0.3607,0.3607,0.3605,0.3609,0.3606,0.361,0.3603,0.3603,0.3608,0.3606,0.3615,0.3605,0.3609,0.3609,0.3608,0.3632,0.3636,0.3651,0.3624,0.3624,0.3625,0,0.361,0.3612,0.3623,0.3621,0.3623,0.3628,0.363,0.3633,0.3633,0.3631,0.3633,0.3628,0.3634,0.3625,0.3633,0.3626,0.3628,0.3627,0.3628,0.3627,0.3617,0.3631,0.3656,0.3658,0.3628,0.3628,0.3627,0,0.3627,0.3632,0.3639,0.364,0.3639,0.3642,0.3642,0.3641,0.3643,0.3645,0.3646,0.3648,0.365,0.3652,0.3648,0.3642,0.3656,0.3647,0.3654,0.3655,0.3657,0.3657,0.3682,0.366,0.366,0.366,0.366,0,0.3646,0.3653,0.3647,0.3651,0.3659,0.3654,0.3661,0.366,0.366,0.3664,0.3658,0.3662,0.3656,0.366,0.3657,0.3664,0.3664,0.3663,0.3662,0.3663,0.3663,0.3663,0.3662,0.366,0.366,0.366,0.366,0,0.3665,0.3662,0.3669,0.3667,0.3667,0.3673,0.3671,0.3675,0.3673,0.3678,0.3679,0.3675,0.3679,0.3675,0.3679,0.3677,0.3686,0.3684,0.3686,0.3685,0.3692,0.3691,0.3717,0.372,0.3697,0.3698,0.3698,0,0.3677,0.3682,0.3681,0.3683,0.3683,0.3687,0.3688,0.3684,0.3686,0.3686,0.369,0.3693,0.3696,0.3702,0.37,0.3703,0.37,0.3709,0.37,0.3701,0.3699,0.3698,0.3699,0.371,0.3711,0.3711,0.3711,0,0.3698,0.3696,0.3698,0.3701,0.3703,0.3704,0.3705,0.3708,0.3703,0.3706,0.3709,0.3711,0.3715,0.3718,0.372,0.372,0.3714,0.3714,0.3716,0.3716,0.3717,0.3716,0.369,0.3713,0.3713,0.3713,0.3713,0.3713,0.3713,0.3717,0.3717,0.372,0.372,0.3721,0.3725,0.3723,0.3726,0.3729,0.3726,0.373,0.3731,0.3733,0.3733,0.3737,0.3733,0.3736,0.3736,0.3736,0.3737,0.3717,0.3737,0.3737,0.3737,0.3737,0.3737,0,0.3733,0.3732,0.3735,0.3737,0.3739,0.3735,0.3736,0.3738,0.3742,0.3743,0.3745,0.3749,0.3752,0.3751,0.3753,0.3756,0.3754,0.3757,0.3756,0.3756,0.3741,0.3739,0.3759,0.3759,0.3759,0.3759,0.3759,0.3759,0.3743,0.375,0.3748,0.3754,0.3754,0.3758,0.3759,0.376,0.376,0.3765,0.3768,0.3767,0.3766,0.3769,0.3772,0.3771,0.3772,0.3776,0.3775,0.376,0.3758,0.3755,0.3753,0.3776,0.3777,0.379,0.379,0.379]}]]